Regional Weather Roundup
Issued by NWS Little Rock, AR

Home | Current Version | Previous Version | Graphics & Text | Print | Product List | Glossary On
Versions: 1 2 3 4 5 6 7 8 9 10 11 12 13 14 15 16 17 18 19 20 21 22 23 24 25 26 27 28 29 30 31 32 33 34 35 36 37 38 39 40 41 42 43 44 45 46 47 48 49
000
ASUS44 KLZK 291705
RWRLZK

WEATHER ROUNDUP FOR ARKANSAS
NATIONAL WEATHER SERVICE LITTLE ROCK AR
1200 PM CDT SAT AUG 29 2015

NOTE: "FAIR" INDICATES FEW OR NO CLOUDS BELOW 12,000 FEET WITH NO
SIGNIFICANT WEATHER AND/OR OBSTRUCTIONS TO VISIBILITY.

ARZ001-003-010-029-291800-
NORTHWEST ARKANSAS

CITY           SKY/WX    TMP DP  RH WIND       PRES   REMARKS
FAYETTEVILLE   MOSUNNY   83  69  62 S13       30.04S HX  86
FORT SMITH     PTSUNNY   82  67  60 VRB6      30.02S
BENTONVILLE    SUNNY     82  64  54 S7        30.05F
ROGERS         SUNNY     83  67  58 S8        30.05S HX  85
SILOAM SPGS    SUNNY     82  64  54 S9        30.02F
HIGHFILL       SUNNY     83  67  58 S9        30.03F HX  85
SPRINGDALE     SUNNY     82  66  57 S12       30.07R HX  85
$$

ARZ004-005-016-291800-
NORTH CENTRAL ARKANSAS

CITY           SKY/WX    TMP DP  RH WIND       PRES   REMARKS
BATESVILLE     CLOUDY    73  66  78 CALM      30.10R
FLIPPIN        CLOUDY    70  63  78 SE3       30.07F
MTN HOME       PTSUNNY   70  66  87 S6        30.08F
$$

ARZ040-041-291800-
WEST CENTRAL ARKANSAS

CITY           SKY/WX    TMP DP  RH WIND       PRES   REMARKS
MENA           CLOUDY    77  68  73 CALM      30.08R
MOUNT IDA      CLOUDY    75  69  81 SE3       30.05R
$$

ARZ009-017-025-026-028-291800-
NORTHEAST ARKANSAS

CITY           SKY/WX    TMP DP  RH WIND       PRES   REMARKS
JONESBORO      PTSUNNY   83  68  60 VRB6      30.08S HX  86
NEWPORT        CLOUDY    81  68  64 W3        30.10R
WALNUT RIDGE   CLOUDY    81  64  57 NW5       30.09S
BLYTHEVILLE    PTSUNNY   88  73  61 VRB3      30.08F HX  95
$$

ARZ022-023-033-042-044-291800-
CENTRAL ARKANSAS

CITY           SKY/WX    TMP DP  RH WIND       PRES   REMARKS
LITTLE ROCK    PTSUNNY   88  59  37 VRB3      30.06F HX  87
N LITTLE ROCK  PTSUNNY   85  65  52 SW2       30.06F HX  86
JACKSONVILLE   CLOUDY    84  64  51 NE6       30.07R HX  85
SEARCY         CLOUDY    82  68  62 SE3       30.09S HX  85
HOT SPRINGS    CLOUDY    80  62  54 CALM      30.06F
RUSSELLVILLE   CLOUDY    76  66  71 E3        30.06S
$$

ARZ036-291800-
EAST ARKANSAS

CITY           SKY/WX    TMP DP  RH WIND       PRES   REMARKS
WEST MEMPHIS     N/A     87  71  58 SW6       30.08R HX  93
$$

ARZ050-053-066-070-073-291800-
SOUTHWEST ARKANSAS

CITY           SKY/WX    TMP DP  RH WIND       PRES   REMARKS
ARKADELPHIA    FAIR      85  68  56 SW6       30.06F HX  88
CAMDEN         PTSUNNY   86  64  48 SW3       30.06S HX  87
TEXARKANA      CLOUDY    83  68  60 S9        30.05F HX  86
EL DORADO      MOSUNNY   89  62  40 SW7       30.07S HX  89
DE QUEEN       CLOUDY    78  70  76 CALM      30.03S
$$

ARZ056-057-069-291800-
SOUTHEAST ARKANSAS

CITY           SKY/WX    TMP DP  RH WIND       PRES   REMARKS
PINE BLUFF     PTSUNNY   84  68  58 VRB3      30.08R HX  87
STUTTGART      CLOUDY    86  64  48 SW6       30.08S HX  87
MONTICELLO     MOSUNNY   91  63  39 VRB6      30.07S HX  92

$$





USA.gov is the U.S. government's official web portal to all federal, state and local government web resources and services.